This is the latest recevied weather packets stored in our database for station/object IK1QAD-3. If no packets are shown the sender has not sent any weather packets the latest 10 day(s).
| Time | Temp. | Humidity | Pressure | Rain* | Wind** | Luminosity | Snow |
|---|---|---|---|---|---|---|---|
| 1777952609 | 12.78° C | 95% | 1011.7 hPa | 38.1 mm | - | - | - |
| 1777952307 | 12.78° C | 95% | 1011.7 hPa | 38.1 mm | - | - | - |
| 1777952021 | 12.78° C | 95% | 1011.7 hPa | 36.07 mm | - | - | - |
| 1777951720 | 12.78° C | 95% | 1011.7 hPa | 34.04 mm | - | - | - |
| 1777951420 | 12.78° C | 95% | 1011.9 hPa | 34.04 mm | - | - | - |
| 1777951113 | 12.78° C | 94% | 1012.3 hPa | 35.05 mm | - | - | - |
| 1777950811 | 12.78° C | 94% | 1012.3 hPa | 34.04 mm | - | - | - |
| 1777950523 | 12.78° C | 94% | 1012.3 hPa | 33.02 mm | - | - | - |
| 1777950206 | 12.78° C | 95% | 1012.3 hPa | 33.02 mm | - | - | - |
| 1777949922 | 12.78° C | 94% | 1012.1 hPa | 32 mm | - | - | - |
| 1777949612 | 12.78° C | 94% | 1011.9 hPa | 30.99 mm | - | - | - |
| 1777949310 | 13.33° C | 95% | 1012 hPa | 32 mm | - | - | - |
| 1777949006 | 13.33° C | 95% | 1012 hPa | 29.97 mm | - | - | - |
| 1777948705 | 13.33° C | 95% | 1012 hPa | 28.96 mm | - | - | - |
| 1777948423 | 13.33° C | 95% | 1012 hPa | 29.97 mm | - | - | - |
| 1777948119 | 13.33° C | 95% | 1012 hPa | 29.97 mm | - | - | - |
| 1777947818 | 13.33° C | 95% | 1012 hPa | 33.02 mm | - | - | - |
| 1777947513 | 13.33° C | 95% | 1012 hPa | 35.05 mm | - | - | - |
| 1777947208 | 13.33° C | 95% | 1012.1 hPa | 42.93 mm | - | - | - |
| 1777946905 | 13.33° C | 95% | 1012.2 hPa | 49.02 mm | - | - | - |
| 1777946618 | 13.33° C | 95% | 1012.3 hPa | 51.05 mm | - | - | - |
| 1777946313 | 13.89° C | 95% | 1012.4 hPa | 50.04 mm | - | - | - |
| 1777946007 | 13.89° C | 96% | 1012.5 hPa | 50.04 mm | - | - | - |
| 1777945704 | 13.89° C | 96% | 1012.4 hPa | 49.02 mm | - | - | - |
| 1777945405 | 13.89° C | 96% | 1012.4 hPa | 48.01 mm | - | - | - |
* Rain latest hour (hover to see other rain measurements)
** Current wind speed in m/s (hover to see current wind gust speed)